Date,TemperatureHighF,TemperatureAvgF,TemperatureLowF,DewpointHighF,DewpointAvgF,DewpointLowF,HumidityHigh,HumidityAvg,HumidityLow,PressureMaxIn,PressureMinIn,WindSpeedMaxMPH,WindSpeedAvgMPH,GustSpeedMaxMPH,PrecipitationSumIn
2012-1-5,42,34,27,34,28,24,91,80,69,29.95,29.46,14,3,30,0.00
2012-1-6,46,42,32,37,34,30,93,75,62,29.63,29.45,11,5,19,0.00
2012-1-7,32,30,27,31,27,21,98,89,73,30.26,29.61,6,0,12,0.01
2012-1-8,36,29,24,29,22,16,85,73,62,30.33,30.23,26,3,28,0.00
2012-1-9,40,32,26,35,30,23,99,91,75,30.24,29.76,33,6,33,0.05
2012-1-10,44,36,27,33,30,24,94,79,57,29.99,29.71,19,2,19,0.00
2012-1-11,52,37,29,35,31,-2,99,80,44,29.72,29.49,19,1,19,0.00
2012-1-12,36,31,28,36,31,26,100,98,89,29.50,29.35,18,1,19,0.29
2012-1-13,28,19,15,28,16,10,100,87,77,30.07,29.35,22,4,24,0.13
2012-1-14,16,9,-3,11,3,-8,84,74,56,30.43,30.07,6,0,7,0.00
2012-1-15,25,12,2,20,7,-3,86,81,75,30.52,30.23,18,1,18,0.00
2012-1-16,34,27,19,31,22,13,95,82,72,30.23,29.76,17,1,19,0.00
2012-1-17,32,27,19,31,23,9,96,85,64,30.11,29.66,28,6,28,0.20
2012-1-18,23,20,18,15,12,8,81,70,62,30.27,29.80,36,4,36,0.01
2012-1-19,25,15,11,23,9,-1,94,76,58,30.23,29.59,34,6,34,0.28
2012-1-20,16,14,12,8,5,1,78,67,56,30.35,30.22,17,1,17,0.00
2012-1-21,25,19,-3,14,8,-9,82,64,56,30.42,30.27,7,0,10,0.01
2012-1-22,37,26,15,31,18,5,93,70,56,30.32,29.71,18,1,18,0.00
2012-1-23,46,38,32,44,37,30,99,96,90,29.71,29.17,20,4,28,0.58
2012-1-24,33,27,25,31,22,16,97,79,66,30.38,29.56,25,3,25,0.08
2012-1-25,34,30,24,27,24,20,89,79,68,30.41,30.17,13,1,13,0.00
2012-1-26,36,30,24,33,27,21,98,88,77,30.17,29.58,17,2,18,0.00
2012-1-27,36,34,30,33,28,22,99,79,60,29.86,29.56,20,2,22,0.03
2012-1-28,36,32,26,34,28,13,99,88,55,29.90,29.59,30,5,30,0.35
2012-1-29,27,26,23,17,15,10,68,63,56,30.22,29.89,27,2,28,0.00
2012-1-30,30,25,15,23,17,8,82,72,58,30.24,29.87,14,0,14,0.08
2012-1-31,47,37,26,40,31,20,95,81,72,29.88,29.59,22,3,22,0.00
2012-2-1,40,34,31,35,29,26,86,80,72,30.19,29.67,24,1,24,0.00
2012-2-2,37,33,30,33,29,27,93,85,72,30.43,30.19,10,0,11,0.00
2012-2-3,40,33,22,32,28,21,95,81,60,30.53,30.42,11,0,11,0.00
2012-2-4,40,29,18,33,26,16,96,88,70,30.50,30.21,24,2,24,0.00
2012-2-5,35,33,31,29,27,25,90,78,68,30.33,30.11,22,1,27,0.00
2012-2-6,37,34,32,31,29,28,91,82,74,30.16,30.00,21,4,24,0.00
2012-2-7,33,21,11,28,12,2,88,69,41,30.58,30.16,17,3,21,0.00
2012-2-8,34,26,10,19,14,7,89,61,45,30.55,30.14,22,3,24,0.00
2012-2-9,38,32,27,22,18,12,69,57,36,30.15,29.92,32,7,33,0.00
2012-2-10,33,20,12,25,12,-1,88,72,55,30.29,29.88,29,6,31,0.05
2012-2-11,21,16,9,13,7,1,75,69,57,30.37,30.20,24,2,26,0.00
2012-2-12,32,24,20,20,15,12,78,67,48,30.21,30.05,25,4,27,0.00
2012-2-13,34,30,25,29,16,10,92,54,41,30.06,29.86,25,4,25,0.03
2012-2-14,36,32,30,31,29,27,95,88,80,29.94,29.79,17,3,17,0.23
2012-2-15,37,35,33,33,31,29,91,85,80,30.07,29.93,19,3,20,0.00
2012-2-16,38,35,32,37,32,25,99,89,70,30.05,29.88,14,0,14,0.03
2012-2-17,41,34,28,30,24,18,95,68,48,30.06,29.97,20,2,24,0.00
2012-2-18,29,26,9,26,19,5,95,75,54,30.35,29.97,21,2,21,0.18
2012-2-19,36,20,4,24,13,0,89,74,47,30.37,30.24,13,1,13,0.00
2012-2-20,42,24,12,30,18,8,96,80,47,30.41,30.05,15,0,16,0.00
2012-2-21,42,36,28,34,27,19,95,72,57,30.05,29.42,30,4,30,0.03
2012-2-22,37,35,32,33,26,22,89,70,61,29.42,29.31,26,5,27,0.03
2012-2-23,37,34,28,28,26,24,89,73,63,29.68,29.34,7,0,7,0.00
2012-2-24,33,30,27,29,25,23,93,83,76,29.72,29.52,22,2,22,0.12
2012-2-25,31,28,24,25,14,10,85,57,43,30.32,29.72,21,2,21,0.01
2012-2-26,36,32,22,24,18,14,71,56,46,30.42,29.91,20,2,28,0.00
2012-2-27,39,33,26,29,24,16,81,68,60,30.50,29.85,22,6,30,0.00
2012-2-28,36,29,21,27,21,13,88,71,56,30.57,30.19,10,0,12,0.00
2012-2-29,38,33,30,32,30,24,94,87,68,30.20,29.47,26,2,26,0.39
2012-3-1,36,32,28,32,28,26,97,88,75,29.87,29.46,8,0,8,0.02
2012-3-2,38,34,32,34,31,29,99,91,73,29.85,29.12,25,2,25,0.53
2012-3-3,32,30,21,32,29,16,99,95,80,29.79,29.12,17,3,22,0.59
2012-3-4,22,17,4,16,9,-3,82,71,59,30.13,29.79,12,0,12,0.03
2012-3-5,28,15,-5,19,7,-12,84,72,62,30.47,30.12,13,0,14,0.01
2012-3-6,50,36,24,36,26,17,81,69,56,30.39,29.76,25,5,27,0.00
2012-3-7,56,52,49,49,40,34,93,63,49,29.77,29.48,40,15,40,0.06
2012-3-8,51,33,29,50,27,20,100,82,64,30.08,29.49,27,2,27,0.43
2012-3-9,32,26,22,28,15,8,89,64,49,30.64,30.02,33,5,33,0.01
2012-3-10,48,34,20,32,18,6,71,52,37,30.63,29.99,34,8,34,0.00
2012-3-11,63,51,44,34,32,26,61,47,31,30.09,30.01,27,7,27,0.00
2012-3-12,53,47,39,53,42,27,100,84,51,30.04,29.57,17,2,21,0.38
2012-3-13,54,44,28,45,37,25,100,76,45,30.07,29.66,29,5,29,0.01
2012-3-14,77,39,26,54,33,25,100,83,32,30.08,29.73,21,1,21,0.00
2012-3-15,63,51,40,55,44,34,100,78,57,30.02,29.72,13,1,13,0.00
2012-3-16,71,50,30,48,38,29,98,69,38,30.11,29.94,10,0,10,0.00
2012-3-17,80,65,52,56,54,48,96,71,36,29.97,29.81,30,6,30,0.00
2012-3-18,81,64,52,61,54,49,91,71,43,29.90,29.82,17,1,17,0.00
2012-3-19,83,64,51,63,57,49,100,79,48,29.93,29.80,19,1,21,0.00
2012-3-20,84,70,59,61,55,46,100,62,35,29.91,29.79,19,3,24,0.00
2012-3-21,86,71,54,59,55,45,81,59,39,29.97,29.84,26,4,26,0.00
2012-3-22,70,59,50,58,54,45,100,82,64,30.13,29.93,18,1,18,0.11
2012-3-23,59,54,50,59,53,45,100,95,81,30.03,29.84,17,3,19,0.35
2012-3-24,60,52,47,47,42,37,89,70,50,29.86,29.79,16,2,17,0.00
2012-3-25,47,42,30,41,33,20,90,72,61,30.31,29.84,27,4,27,0.00
2012-3-26,39,31,25,21,16,9,78,56,31,30.56,30.30,21,2,22,0.00
2012-3-27,57,42,29,40,19,6,57,41,23,30.44,29.47,34,5,34,0.00
2012-3-28,60,44,35,46,35,27,84,71,52,30.06,29.43,22,4,22,0.00
2012-3-29,39,34,28,31,25,23,83,69,53,30.25,30.05,18,2,18,0.00
2012-3-30,36,33,28,32,26,21,89,75,62,30.19,29.93,14,1,16,0.04
2012-3-31,50,38,32,34,30,26,87,74,50,30.09,29.81,14,0,14,0.00
2012-4-1,50,41,33,40,36,29,94,82,65,29.90,29.71,11,0,12,0.00
2012-4-2,58,41,28,37,30,24,95,69,34,30.09,29.90,20,1,20,0.00
2012-4-3,50,44,30,38,33,25,90,65,52,29.98,29.88,16,1,16,0.03
2012-4-4,51,38,25,37,28,23,99,69,37,30.05,29.96,20,2,21,0.01
2012-4-5,45,36,27,30,23,17,82,61,35,30.27,30.05,17,2,17,0.00
2012-4-6,51,37,21,37,23,18,98,63,30,30.40,30.27,11,0,13,0.00
2012-4-7,63,44,21,39,26,19,97,57,21,30.38,30.02,14,1,17,0.00
2012-4-8,54,44,30,46,33,20,100,68,27,30.06,29.92,26,3,26,0.23
2012-4-9,56,40,26,42,28,20,99,66,27,30.00,29.79,19,2,19,0.00
2012-4-10,42,37,35,30,27,22,77,67,49,30.05,29.85,25,4,25,0.00
2012-4-11,49,37,0,34,30,-3,96,78,50,30.29,30.04,21,1,21,0.00
2012-4-12,48,36,23,35,27,22,99,74,41,30.32,30.22,12,0,13,0.00
2012-4-13,62,33,24,41,26,23,100,80,27,30.31,29.98,17,0,18,0.00
2012-4-14,70,58,45,49,41,29,74,54,36,29.98,29.62,26,6,26,0.00
2012-4-15,70,62,55,63,58,49,100,89,71,29.65,29.36,30,5,30,0.11
2012-4-16,65,53,30,62,46,18,94,78,61,30.09,29.18,38,11,38,0.20
2012-4-17,38,32,28,26,22,16,83,66,57,30.47,30.09,27,1,27,0.01
2012-4-18,58,54,44,46,44,40,83,70,64,29.88,29.80,21,4,21,0.06
2012-4-19,46,42,38,40,34,30,95,76,58,30.05,29.87,14,2,17,0.35
2012-4-20,42,38,34,38,36,28,96,92,79,30.03,29.79,21,4,26,1.04
2012-4-21,49,37,25,39,25,17,98,66,28,30.13,30.02,13,1,14,0.01
2012-4-22,53,34,24,36,24,18,99,73,27,30.19,30.09,19,1,20,0.00
2012-4-23,53,43,32,36,26,14,90,54,22,30.09,29.64,27,3,32,0.00
2012-4-24,55,45,38,32,29,25,73,54,33,29.65,29.54,30,3,30,0.00
2012-4-25,60,45,27,41,27,16,96,55,21,29.77,29.64,11,0,12,0.00
2012-4-26,44,40,33,42,33,22,99,78,48,30.18,29.62,31,3,31,0.21
2012-4-27,49,39,28,32,23,14,85,56,27,30.31,30.17,16,1,17,0.00
2012-4-28,53,38,24,29,24,20,91,62,30,30.33,30.26,17,1,17,0.00
2012-4-29,60,33,23,35,23,15,92,74,19,30.40,30.14,14,0,14,0.00
2012-4-30,52,46,39,42,33,11,90,64,23,30.15,29.85,10,0,10,0.12
2012-5-1,67,50,42,48,42,37,95,73,48,29.99,29.83,14,1,16,0.00
2012-5-2,64,54,43,59,52,42,100,91,75,29.85,29.60,20,2,21,0.27
2012-5-3,70,58,48,66,58,48,100,98,84,29.86,29.63,20,1,21,0.83
2012-5-4,63,53,42,54,48,40,100,85,53,30.07,29.76,19,3,19,0.00
2012-5-5,61,49,42,45,41,27,98,74,42,30.16,30.00,15,1,15,0.07
2012-5-6,62,52,45,53,38,19,100,64,27,30.09,29.96,14,0,17,0.37
2012-5-7,66,53,44,50,46,40,100,78,44,29.96,29.72,12,0,12,0.00
2012-5-8,65,50,38,50,45,37,100,84,51,29.76,29.68,12,0,13,0.00
2012-5-9,58,48,36,46,40,28,100,77,40,29.88,29.70,17,1,18,0.05
2012-5-10,64,50,34,43,35,29,99,62,27,29.93,29.85,17,2,17,0.00
2012-5-11,77,59,40,45,38,34,85,50,26,30.00,29.89,21,3,21,0.00
2012-5-12,65,57,38,49,42,28,90,61,27,30.22,29.89,17,1,17,0.00
2012-5-13,71,59,31,50,32,27,100,44,21,30.25,30.00,12,2,14,0.00
2012-5-14,80,65,42,43,39,34,78,43,24,30.02,29.75,22,5,26,0.00
2012-5-15,80,62,42,52,43,36,85,51,29,29.87,29.53,28,4,28,0.03
2012-5-16,52,41,33,43,36,30,95,84,43,30.14,29.86,14,0,14,0.00
2012-5-17,70,50,29,48,34,28,99,61,27,30.22,29.97,13,1,13,0.00
2012-5-18,83,65,51,50,43,37,73,48,24,30.00,29.82,21,3,21,0.00
2012-5-19,86,76,59,64,59,56,89,58,38,29.88,29.79,12,1,14,0.00
2012-5-20,93,78,59,63,55,46,88,48,31,29.88,29.66,25,5,31,0.03
2012-5-21,66,55,46,64,48,40,100,79,50,30.08,29.73,17,1,17,0.02
2012-5-22,68,55,37,49,42,33,95,66,37,30.09,29.83,14,1,14,0.00
2012-5-23,81,62,47,54,49,44,91,66,30,29.85,29.63,14,1,14,0.00
2012-5-24,88,73,53,58,54,48,91,54,28,29.66,29.36,28,5,28,0.00
2012-5-25,77,68,52,60,52,47,89,59,40,30.03,29.34,28,7,28,0.00
2012-5-26,75,60,45,55,49,44,99,69,38,30.16,30.00,12,0,12,0.00
2012-5-27,78,65,55,69,56,41,100,76,50,30.07,29.65,19,2,19,0.47
2012-5-28,89,75,60,70,64,60,100,72,44,29.65,29.40,26,4,28,0.53
2012-5-29,72,63,47,62,54,46,100,78,46,29.66,29.37,25,4,27,0.01
2012-5-30,53,48,41,53,43,36,100,83,68,29.96,29.63,14,1,17,0.00
2012-5-31,59,48,35,45,39,33,97,72,44,30.05,29.92,14,1,14,0.00
2012-6-1,53,50,47,49,45,40,100,86,66,29.94,29.48,24,4,24,0.64
2012-6-2,52,49,47,51,49,46,100,100,99,29.54,29.40,24,3,24,1.22
2012-6-3,65,56,46,57,53,46,100,89,62,29.77,29.53,16,1,17,0.00
2012-6-4,70,58,44,58,51,44,99,79,53,29.88,29.76,10,1,12,0.00
2012-6-5,70,59,45,56,50,45,100,76,47,30.01,29.88,14,1,14,0.00
2012-6-6,75,52,43,59,47,42,100,88,41,30.03,29.93,11,0,12,0.00
2012-6-7,80,64,44,60,51,44,100,68,33,30.01,29.86,13,0,13,0.00
2012-6-8,82,67,53,68,58,49,100,74,47,29.87,29.63,22,2,22,0.40
2012-6-9,86,68,60,68,63,57,100,86,43,29.69,29.60,21,3,21,0.27
2012-6-10,92,77,62,67,60,54,81,57,36,29.76,29.66,20,3,24,0.00
2012-6-11,89,75,64,73,65,59,100,74,48,29.69,29.49,29,2,29,0.13
2012-6-12,72,60,41,70,51,37,100,74,51,30.10,29.48,19,2,20,0.00
2012-6-13,70,54,37,52,43,37,100,71,32,30.21,30.08,7,0,12,0.00
2012-6-14,79,62,44,56,48,41,100,63,33,30.15,29.93,13,0,13,0.00
2012-6-15,89,74,61,63,54,45,100,52,33,29.98,29.87,18,2,19,0.00
2012-6-16,91,73,61,74,62,56,100,73,33,29.93,29.60,14,1,20,0.64
2012-6-17,76,69,58,70,64,53,100,88,45,29.65,29.54,24,4,25,0.31
2012-6-18,84,69,58,76,65,58,100,88,59,29.61,29.36,27,2,30,1.59
2012-6-19,85,73,66,77,70,66,100,93,65,29.80,29.53,30,1,30,0.58
2012-6-20,91,82,70,74,70,68,100,70,52,29.75,29.55,29,6,29,0.00
2012-6-21,80,72,58,69,65,58,100,80,60,29.78,29.51,27,4,28,0.02
2012-6-22,77,64,52,63,54,47,100,74,36,29.89,29.77,14,0,16,0.00
2012-6-23,81,65,47,67,54,47,100,72,35,29.94,29.85,10,0,11,0.00
2012-6-24,73,64,56,69,60,47,100,87,63,29.94,29.79,13,1,13,0.10
2012-6-25,72,63,46,62,52,43,100,70,37,30.04,29.93,18,1,21,0.00
2012-6-26,78,66,46,64,52,45,100,65,33,29.99,29.80,8,1,19,0.00
2012-6-27,86,76,49,63,57,49,100,55,34,29.83,29.56,12,2,20,0.00
2012-6-28,85,74,63,71,65,55,100,75,57,29.58,29.49,13,0,13,0.00
2012-6-29,85,74,66,67,62,56,100,68,40,29.63,29.50,19,2,22,0.00
2012-6-30,86,74,63,67,62,56,100,70,37,29.68,29.50,10,0,11,0.00
2012-7-1,87,73,56,71,60,55,100,70,35,29.81,29.68,8,0,8,0.00
2012-7-2,96,82,56,73,63,52,100,60,26,29.86,29.66,7,0,8,0.00
2012-7-3,86,75,68,75,69,65,100,85,52,29.66,29.55,14,2,21,0.49
2012-7-4,92,74,67,78,70,65,100,89,47,29.71,29.55,7,0,7,0.00
2012-7-5,90,79,70,78,72,68,100,81,59,29.73,29.55,17,1,18,0.05
2012-7-6,90,76,61,78,67,61,100,76,41,29.81,29.69,12,0,12,0.00
2012-7-7,80,68,63,71,64,58,100,89,63,29.91,29.73,17,2,20,0.25
2012-7-8,83,71,58,69,62,54,100,76,40,29.95,29.85,10,0,10,0.00
2012-7-9,79,68,55,70,59,44,100,75,31,29.95,29.88,7,0,14,0.00
2012-7-10,80,66,49,67,56,49,100,76,41,30.05,29.95,6,0,8,0.00
2012-7-11,86,70,51,70,57,50,100,71,31,30.08,29.93,10,0,11,0.00
2012-7-12,90,73,55,72,58,51,100,67,28,30.00,29.88,11,0,11,0.00
2012-7-13,95,75,54,71,59,53,100,65,26,29.98,29.81,16,1,16,0.00
2012-7-14,92,75,63,73,68,63,100,81,49,29.86,29.76,12,0,14,0.00
2012-7-15,83,74,66,78,71,66,100,90,65,29.84,29.75,14,0,20,1.28
2012-7-16,92,79,65,76,70,65,100,76,52,29.83,29.45,21,2,21,0.00
2012-7-17,82,76,67,76,70,66,100,82,62,29.74,29.42,21,2,21,0.00
2012-7-18,82,70,56,70,62,56,100,80,53,29.84,29.74,16,1,16,0.00
2012-7-19,70,66,54,69,64,53,100,91,60,30.00,29.78,10,1,11,0.18
2012-7-20,80,66,50,70,58,50,100,78,42,30.05,29.90,12,0,13,0.00
2012-7-21,83,70,58,73,66,58,100,87,66,29.93,29.77,21,2,26,0.01
2012-7-22,89,74,58,71,64,58,100,76,40,29.89,29.74,10,0,10,0.00
2012-7-23,90,80,68,76,72,64,100,79,53,29.75,29.56,22,2,22,0.00
2012-7-24,81,73,57,69,60,46,100,69,33,29.85,29.68,11,0,13,0.00
2012-7-25,69,61,54,69,60,54,100,96,61,29.84,29.38,17,0,19,1.15
2012-7-26,76,68,62,74,68,62,100,98,83,29.62,29.40,14,1,14,0.00
2012-7-27,74,66,59,71,65,59,100,97,80,29.90,29.61,11,1,11,0.03
2012-7-28,80,64,53,72,59,53,100,87,54,30.00,29.90,10,0,10,0.00
2012-7-29,86,69,50,74,58,46,100,75,27,29.98,29.80,10,0,11,0.00
2012-7-30,88,74,60,73,66,60,100,81,49,29.83,29.56,20,2,20,0.15
2012-7-31,75,68,58,70,66,58,100,93,71,29.81,29.63,16,1,16,0.07
2012-8-1,85,68,48,73,61,48,100,81,44,29.85,29.62,19,1,19,0.00
2012-8-2,84,72,66,77,69,66,100,92,60,29.72,29.53,21,2,21,0.02
2012-8-3,85,73,63,72,68,62,100,85,62,29.80,29.71,12,1,12,0.00
2012-8-4,94,82,65,81,72,65,100,74,50,29.77,29.56,17,1,22,0.14
2012-8-5,75,70,52,72,61,48,100,75,40,29.99,29.53,24,2,25,0.00
2012-8-6,80,66,50,70,57,50,100,76,46,30.02,29.76,20,2,26,0.00
2012-8-7,83,74,64,71,66,56,100,80,48,29.84,29.68,14,1,17,0.00
2012-8-8,76,65,53,69,59,53,100,82,56,29.91,29.83,11,0,11,0.00
2012-8-9,72,65,60,67,59,51,100,82,58,29.88,29.81,17,1,17,0.06
2012-8-10,72,65,60,62,54,51,98,69,50,29.83,29.74,26,5,28,0.00
2012-8-11,78,68,62,62,57,53,98,68,43,29.81,29.70,20,3,20,0.00
2012-8-12,78,67,55,67,60,54,100,80,51,29.83,29.79,14,0,14,0.00
2012-8-13,78,65,56,69,60,54,100,87,47,29.84,29.76,11,0,11,0.00
2012-8-14,80,67,54,70,62,54,100,86,52,29.80,29.70,13,0,13,0.00
2012-8-15,83,69,56,72,58,49,100,74,32,29.79,29.68,8,0,8,0.00
2012-8-16,67,59,56,63,59,56,100,98,86,29.73,29.59,7,0,10,0.00
2012-8-24,75,73,72,67,65,64,81,75,71,29.81,29.78,3,0,8,0.00
2012-8-25,94,78,66,70,64,60,98,66,33,29.88,29.79,13,1,19,0.00
2012-8-26,90,73,63,72,66,61,100,83,40,29.88,29.76,11,0,18,2.04
2012-8-27,81,73,64,73,66,57,100,81,47,29.92,29.77,12,0,12,0.00
2012-8-28,75,67,51,65,58,51,100,76,48,30.01,29.92,14,1,14,0.00
2012-8-29,80,67,47,67,57,47,100,75,45,30.03,29.81,14,1,14,0.00
2012-8-30,90,75,59,68,63,59,100,69,42,29.83,29.60,32,7,34,0.00
2012-8-31,81,74,57,70,63,55,96,69,45,30.00,29.61,22,2,26,0.00
2012-9-1,78,65,50,66,56,50,100,76,44,30.08,29.95,18,2,18,0.00
2012-9-2,84,67,51,60,55,51,100,72,34,30.01,29.82,12,0,12,0.00
2012-9-3,90,71,55,68,61,54,100,75,44,29.85,29.69,16,1,19,0.14
2012-9-4,83,70,61,72,66,60,100,89,62,29.77,29.66,10,0,11,0.05
2012-9-5,84,69,56,72,63,-2,100,84,48,29.67,29.54,19,1,19,0.00
2012-9-6,78,64,52,69,56,49,100,81,37,29.78,29.65,13,1,14,0.00
2012-9-7,65,60,55,64,60,55,100,100,96,29.79,29.66,14,0,16,0.62
2012-9-8,66,58,49,58,52,42,100,82,53,29.74,29.59,17,1,21,0.01
2012-9-9,68,56,45,60,48,43,100,78,43,30.04,29.73,19,1,19,0.00
2012-9-10,75,58,40,58,50,40,100,78,45,30.15,29.95,17,1,17,0.00
2012-9-11,81,72,62,61,58,55,90,63,43,29.94,29.81,32,7,32,0.00
2012-9-12,81,72,64,68,61,53,96,70,51,30.01,29.83,25,5,28,0.00
2012-9-13,64,59,51,58,53,48,100,82,60,30.20,30.00,10,0,12,0.01
2012-9-14,69,57,44,55,48,43,100,77,43,30.22,30.16,16,0,18,0.00
2012-9-15,70,53,43,57,48,43,100,84,45,30.30,30.03,12,0,12,0.00
2012-9-16,77,63,46,61,51,44,100,69,37,30.03,29.76,27,4,27,0.00
2012-9-17,71,61,52,65,56,50,100,84,62,29.76,29.59,22,1,22,0.51
2012-9-18,55,50,45,52,46,35,100,85,61,29.86,29.60,25,2,25,0.33
2012-9-19,59,50,40,51,43,35,100,79,50,29.96,29.61,28,2,28,0.11
2012-9-20,60,55,50,54,50,45,100,85,64,29.73,29.60,28,4,28,0.40
2012-9-21,61,53,44,54,46,41,100,80,55,29.77,29.65,26,2,26,0.11
2012-9-22,57,49,43,48,45,38,100,89,52,29.98,29.60,26,1,26,0.22
2012-9-23,55,48,40,45,41,37,100,79,54,30.11,29.97,24,1,24,0.08
2012-9-24,64,54,40,51,41,33,100,64,36,30.10,29.57,39,8,39,0.00
2012-9-25,64,53,41,52,45,40,100,77,50,29.84,29.65,14,1,14,0.00
2012-9-26,60,46,36,51,41,36,100,86,49,30.19,29.83,12,0,12,0.00
2012-9-27,59,45,33,51,40,33,100,84,52,30.31,30.17,10,0,10,0.00
2012-9-28,67,48,33,58,43,33,100,86,47,30.20,30.03,10,0,10,0.00
2012-9-29,64,57,40,59,48,40,100,75,52,30.05,29.93,12,1,13,0.00
2012-9-30,61,48,36,51,42,36,100,83,47,30.03,29.92,11,0,12,0.00
2012-10-1,66,42,34,56,39,34,100,91,46,29.93,29.78,11,0,12,0.00
2012-10-2,62,50,40,58,49,40,100,94,75,29.90,29.78,6,0,6,0.00
2012-10-3,72,54,36,59,50,36,100,89,46,29.98,29.86,7,0,7,0.05
2012-10-4,73,62,57,64,57,43,100,85,59,29.86,29.70,25,4,26,0.61
2012-10-5,57,49,45,44,37,30,72,64,54,29.89,29.78,28,7,28,0.00
2012-10-6,47,43,39,41,36,28,97,76,53,30.11,29.78,26,3,26,0.11
2012-10-7,45,39,32,44,36,30,100,90,70,30.11,30.03,18,1,18,0.16
2012-10-8,58,48,35,36,34,31,97,62,38,30.07,29.84,31,6,31,0.00
2012-10-9,57,50,42,51,43,32,100,77,49,29.84,29.58,29,6,29,0.33
2012-10-10,44,42,39,43,34,22,100,76,48,30.06,29.64,27,3,27,0.10
2012-10-11,45,42,37,44,35,24,100,79,50,31.99,29.83,25,3,28,0.42
2012-10-12,49,39,32,38,30,24,99,70,42,30.43,30.18,13,1,24,0.00
2012-10-13,51,42,31,51,40,27,100,93,68,30.33,29.74,17,1,17,0.88
2012-10-14,54,51,46,54,51,46,100,100,100,29.76,29.27,25,2,27,1.73
2012-10-15,46,44,42,45,41,36,100,91,77,29.92,29.42,26,3,31,0.27
2012-10-16,56,44,31,46,39,31,100,86,62,29.94,29.60,18,1,18,0.00
2012-10-17,74,60,49,58,50,41,94,70,46,29.60,29.37,21,3,21,0.01
2012-10-18,60,54,44,58,51,41,100,90,78,29.57,29.21,26,3,26,0.16
2012-10-19,52,46,40,49,43,40,100,90,72,29.59,29.53,10,0,11,0.08
2012-10-20,58,47,36,53,45,36,100,94,65,29.83,29.57,11,0,11,0.01
2012-10-21,60,48,39,54,45,39,100,90,54,30.02,29.83,14,1,14,0.01
2012-10-22,63,52,39,53,47,39,100,86,63,30.02,29.93,12,0,12,0.01
2012-10-23,64,56,53,54,52,48,100,87,67,29.96,29.92,18,2,18,0.02
2012-10-24,70,61,53,65,59,52,100,94,76,29.95,29.79,12,1,12,0.08
2012-10-25,78,68,48,65,61,48,100,79,54,29.79,29.53,36,11,36,0.59
2012-10-26,48,43,40,48,35,29,100,75,57,30.27,29.75,21,2,22,0.10
2012-10-27,44,41,37,36,31,24,92,68,57,30.30,30.24,12,0,12,0.00
2012-10-28,45,41,36,32,28,25,73,61,48,30.34,30.27,17,2,17,0.00
2012-10-29,44,41,37,32,26,22,70,56,43,30.28,30.00,35,7,35,0.00
2012-10-30,40,38,36,38,33,25,100,86,55,30.04,29.68,35,11,35,0.36
2012-10-31,40,38,36,40,38,36,100,97,86,29.70,29.64,27,6,27,0.12
2012-11-1,42,40,38,40,34,28,100,79,59,29.81,29.66,27,4,27,0.04
2012-11-2,38,36,34,34,30,27,98,80,64,30.13,29.80,21,4,27,0.03
2012-11-3,36,34,32,34,31,28,100,87,75,30.22,30.12,12,0,12,0.06
2012-11-4,40,36,33,32,29,26,88,76,62,30.23,30.19,13,1,13,0.00
2012-11-5,38,32,25,28,22,17,87,69,44,30.27,30.15,12,0,12,0.00
2012-11-6,40,35,25,27,25,19,83,66,52,30.15,29.96,17,1,17,0.00
2012-11-7,47,37,27,30,27,25,97,69,46,30.16,29.99,7,0,7,0.00
2012-11-8,45,41,33,38,34,28,84,76,71,30.17,30.02,27,3,27,0.00
2012-11-9,49,45,43,42,40,38,93,84,75,30.13,30.05,13,0,14,0.00
2012-11-10,53,46,44,51,44,39,100,94,81,30.12,29.81,14,1,14,0.24
2012-11-11,68,61,52,56,51,47,100,71,57,29.85,29.63,34,9,34,0.20
2012-11-12,52,36,28,52,32,13,100,83,48,30.13,29.70,31,8,31,0.19
2012-11-13,38,33,25,27,23,16,89,68,53,30.48,30.13,21,2,21,0.00
2012-11-14,42,32,28,30,25,22,86,75,59,30.51,30.36,18,1,18,0.00
2012-11-15,48,39,33,36,31,24,91,73,57,30.36,30.24,28,3,28,0.00
2012-11-16,42,34,25,40,28,22,99,80,56,30.51,30.32,11,0,11,0.00
2012-11-17,46,34,24,42,32,23,100,94,71,30.56,30.48,11,0,11,0.00
2012-11-18,56,44,31,35,32,29,100,67,39,30.50,30.33,14,1,14,0.00
2012-11-19,54,45,32,37,34,30,95,68,49,30.33,30.10,12,0,12,0.00
2012-11-20,50,47,43,47,44,36,100,88,65,30.13,30.07,8,0,12,0.01
2012-11-21,54,49,45,46,44,37,100,83,64,30.16,29.95,24,5,24,0.00
2012-11-22,64,56,48,48,41,38,79,60,40,29.95,29.51,38,12,38,0.00
2012-11-23,56,36,30,49,30,23,100,81,68,29.98,29.45,36,9,36,0.25
2012-11-24,35,31,29,26,22,17,86,68,59,30.10,29.94,20,3,22,0.03
2012-11-25,36,30,28,31,25,18,94,82,61,29.94,29.74,26,2,26,0.26
2012-11-26,31,30,28,20,17,13,67,59,50,30.28,29.94,18,1,18,0.01
2012-11-27,33,30,28,29,19,14,89,61,48,30.28,30.08,27,6,27,0.00
2012-11-28,35,31,0,32,25,-4,100,78,55,30.24,30.08,21,3,21,0.12
2012-11-29,40,34,28,29,26,21,82,71,60,30.28,30.12,24,2,24,0.00
2012-11-30,34,29,26,30,24,20,88,81,74,30.33,30.26,17,2,17,0.02
2012-12-1,45,38,33,45,33,29,100,85,74,30.28,29.79,17,2,17,0.19
2012-12-2,49,43,40,49,43,39,100,99,95,30.08,29.77,16,1,16,0.06
2012-12-3,62,48,39,61,48,38,100,99,88,30.09,29.60,29,5,29,0.00
2012-12-4,60,42,29,57,34,16,92,73,56,30.17,29.63,30,5,30,0.00
2012-12-5,34,29,24,22,19,14,77,64,51,30.42,30.17,22,2,22,0.00
2012-12-6,41,35,28,37,26,20,85,70,60,30.26,29.82,21,4,21,0.04
2012-12-7,41,37,32,38,30,24,90,75,63,29.99,29.82,14,1,14,0.00
2012-12-8,36,32,0,31,23,0,91,69,57,30.17,29.94,11,0,11,0.02
2012-12-9,35,30,26,29,23,18,98,77,56,30.23,29.74,16,2,17,0.10
2012-12-10,32,28,26,27,22,18,97,80,69,29.89,29.65,14,2,14,0.03
2012-12-11,32,28,20,29,20,15,98,74,58,29.98,29.86,33,5,33,0.06
2012-12-12,38,32,29,29,23,18,86,69,60,30.22,29.98,22,4,22,0.01
2012-12-13,45,40,37,32,30,26,78,66,54,30.16,29.97,35,9,35,0.00
2012-12-14,37,32,27,32,26,23,88,78,66,30.24,30.06,7,0,7,0.00
2012-12-15,40,35,28,38,32,24,100,89,73,30.18,29.58,16,1,16,0.57
2012-12-16,45,41,37,45,41,37,100,100,100,29.58,29.48,10,0,10,0.15
2012-12-17,40,37,33,40,36,33,100,98,91,29.66,29.56,10,0,10,0.02
2012-12-18,41,36,32,39,34,30,100,93,77,29.76,29.65,6,0,6,0.15
2012-12-19,39,35,30,38,32,28,100,90,73,30.10,29.76,11,0,11,0.00
2012-12-20,38,35,33,36,32,-2,100,88,80,30.06,29.26,19,1,19,0.67
2012-12-21,31,29,27,31,29,25,100,99,90,29.96,29.28,0,0,0,0.18
2012-12-22,30,28,27,26,24,23,90,86,76,30.04,29.85,11,0,11,0.00
2012-12-23,30,27,24,27,21,17,89,78,70,30.03,29.84,20,2,20,0.00
2012-12-24,32,26,23,27,22,18,89,84,77,30.08,29.94,2,0,2,0.13
2012-12-25,29,26,24,25,20,17,86,75,67,30.41,30.08,10,0,10,0.00
2012-12-26,25,23,20,21,17,14,86,78,73,30.38,30.14,19,3,19,0.00
2012-12-27,27,22,12,21,16,9,87,79,71,30.19,30.08,15,1,15,0.00
2012-12-28,25,24,22,20,18,17,83,79,75,30.15,29.99,5,0,5,0.00
2012-12-29,31,25,21,23,18,15,82,76,69,30.02,29.85,7,0,7,0.00
2012-12-30,33,29,0,23,19,0,74,65,63,30.18,30.02,14,3,14,0.03
2012-12-31,20,20,20,9,9,9,62,61,60,30.06,30.06,10,2,10,0.00
2013-1-1,24,21,0,15,7,-100,69,54,56,30.11,29.92,12,1,12,0.00